EW4229 Weather Reports


Display with metric or nautical units.
time (UTC)temp
F
wind
direction
speed
MPH
gust
MPH
rain 1hr
in
rain 24hr
in
rain mn
in
humidity
%
barometer
mb
20260903190050 85 283 3.0 8.0 0.00 0.86 0.85 67 1013.2
20260903184545 85 338 2.0 7.0 0.00 0.86 0.85 69 1013.5
20260903183046 83 292 5.0 11.0 0.00 0.86 0.85 69 1013.6
20260903180039 84 354 3.0 11.0 0.00 0.88 0.85 70 1014.0
20260903174536 83 307 3.0 9.0 0.00 0.88 0.85 72 1014.1
20260903173033 82 296 2.0 8.0 0.00 0.88 0.85 73 1014.2
20260903170029 81 245 4.0 10.0 0.00 1.08 0.85 81 1014.7
20260903164525 80 271 3.0 7.0 0.00 1.08 0.85 84 1015.0
20260903163023 79 283 4.0 10.0 0.00 1.08 0.85 84 1015.1
20260903160028 78 70 1.0 8.0 0.00 1.68 0.85 82 1015.6
20260903154513 77 326 1.0 6.0 0.00 1.68 0.85 85 1015.9
20260903153011 76 319 1.0 5.0 0.00 1.68 0.85 86 1016.0
20260903150015 75 326 1.0 5.0 0.00 1.68 0.85 88 1016.4
20260903144532 75 186 3.0 6.0 0.00 1.68 0.85 88 1016.7
20260903143005 75 320 1.0 4.0 0.00 1.68 0.85 91 1016.6
20260903134606 73 318 6.0 17.0 0.00 1.68 0.85 93 1017.1
20260903133101 73 307 1.0 5.0 0.00 1.68 0.85 95 1015.9
20260903130053 72 313 0.0 4.0 0.00 1.68 0.85 99 1016.2
20260903124652 71 311 1.0 3.0 0.00 1.68 0.85 100 1016.4
20260903123053 70 323 2.0 6.0 0.00 1.68 0.85 100 1016.3
20260903120100 69 313 0.0 3.0 0.00 1.68 0.85 100 1015.7
20260903114551 0 0.0 0.0 0.01 1.68 0.85 1015.6
20260903113122 0 0.0 0.0 0.02 1.68 0.85 1016.2
20260903110043 68 154 1.0 5.0 0.13 1.68 0.85 100 1015.7
20260903104556 68 296 0.0 3.0 0.19 1.67 0.84 100 1016.1
20260903103044 68 134 0.0 3.0 0.24 1.66 0.83 100 1015.7
20260903100044 68 291 0.0 3.0 0.14 1.55 0.72 100 1018.3
20260903094550 68 291 2.0 4.0 0.08 1.49 0.66 100 1018.5
20260903093043 68 294 0.0 1.0 0.02 1.43 0.60 100 1017.7
20260903090046 68 308 0.0 3.0 0.00 1.41 0.57 100 1017.7
20260903084539 68 295 0.0 1.0 0.36 1.41 0.57 100 1017.5
20260903083035 0 0.0 0.0 0.36 1.41 0.57 1017.3
20260903080034 68 349 2.0 5.0 0.36 1.41 0.57 99 1017.5
20260903074537 68 61 0.0 4.0 0.23 1.28 0.45 99 1017.6
20260903073033 0 0.0 0.0 0.00 1.05 0.22 1017.0
20260903070028 68 49 2.0 14.0 0.00 1.05 0.22 99 1017.5
20260903064528 69 158 0.0 1.0 0.00 1.05 0.22 99 1016.1
20260903063027 68 148 0.0 1.0 0.00 1.05 0.22 99 1015.9
20260903060022 68 159 0.0 0.0 0.01 1.06 0.22 99 1016.4
20260903054519 68 169 0.0 0.0 0.02 1.06 0.22 99 1017.0
20260903053020 68 156 0.0 3.0 0.19 1.06 0.22 99 1016.7
20260903050013 68 81 0.0 2.0 0.22 1.06 0.22 98 1017.4
20260903044511 69 89 1.0 12.0 0.20 1.04 0.20 98 1017.8
20260903043006 72 337 4.0 14.0 0.06 0.90 0.06 94 1018.4
20260903040010 71 145 0.0 5.0 0.00 0.88 0.84 97 1016.4
20260903034504 71 113 1.0 3.0 0.00 0.88 0.84 97 1016.7
20260903033006 71 143 0.0 2.0 0.00 0.88 0.84 97 1017.0
20260903030003 71 156 0.0 0.0 0.00 1.38 0.84 97 1017.1
20260903024505 71 133 0.0 1.0 0.00 1.38 0.84 97 1017.1
20260903023002 71 108 0.0 1.0 0.00 1.38 0.84 96 1017.0
20260903020001 72 138 0.0 1.0 0.00 1.38 0.84 96 1016.6
20260903014501 72 139 0.0 2.0 0.00 1.38 0.84 96 1016.4
20260903013108 72 146 0.0 2.0 0.00 1.38 0.84 96 1016.7
20260903010105 73 142 0.0 0.0 0.00 1.38 0.84 95 1017.0
20260903004605 73 142 0.0 1.0 0.00 1.38 0.84 94 1016.9
20260903003100 73 125 0.0 1.0 0.00 1.38 0.84 93 1016.7
20260903001659 74 126 0.0 0.0 0.00 1.38 0.84 92 1016.8
20260903000058 74 126 0.0 2.0 0.00 1.38 0.84 92 1016.7
20260902234615 74 156 0.0 3.0 0.00 1.38 0.84 91 1016.7
20260902233101 74 132 0.0 3.0 0.00 1.38 0.84 92 1016.7
20260902231700 74 139 0.0 3.0 0.00 1.38 0.84 91 1016.6
20260902230103 74 135 1.0 7.0 0.00 1.38 0.84 91 1016.5
20260902224610 74 133 0.0 4.0 0.00 1.38 0.84 92 1016.6
20260902223055 75 146 0.0 4.0 0.00 1.38 0.84 91 1016.7
20260902220057 77 136 2.0 5.0 0.00 1.38 0.84 87 1016.6
20260902214556 77 116 0.0 2.0 0.00 1.38 0.84 89 1016.7
20260902213054 0 0.0 0.0 0.00 1.38 0.84 1017.0
20260902211650 0 0.0 0.0 0.00 1.38 0.84 1016.9
20260902210045 0 0.0 0.0 0.00 1.38 0.84 1017.0
20260902204541 0 0.0 0.0 0.00 1.38 0.84 1017.0
20260902203037 0 0.0 0.0 0.00 1.38 0.84 1017.0
20260902201635 75 136 0.0 3.0 0.00 1.38 0.84 92 1017.0
20260902200049 75 108 0.0 2.0 0.00 1.38 0.84 92 1016.8
20260902194532 74 122 1.0 4.0 0.00 1.38 0.84 93 1017.0
20260902193029 74 140 0.0 3.0 0.01 1.38 0.84 94 1017.7